Temp
62 64 67 69 69 70 71 71 70 71 72 72 74 74 75 75 75 75 76 76 76 77 78 78 78 78 78 78 78 77 77 76 75 76 77 77 78 77 77 75 75 75 76
62 63 66 68 69 70 70 71 70 70 70 71 72 72 74 75 75 75 75 76 76 78 78 78 78 78 78 77 76 76 76 75 75 75 77 78 78 77 76 75 75 75 75
60 61 63 67 68 69 70 70 70 70 70 70 70 71 72 74 75 75 75 75 76 77 78 78 78 78 77 75 75 75 75 74 74 75 76 74 74 77 76 75 75 75 75
60 59 62 66 67 68 68 69 69 69 68 69 69 69 70 71 73 75 74 75 75 77 77 78 78 78 76 74 74 73 74 74 74 74 73 73 76 76 76 75 75 75 75
58 59 61 66 66 67 67 68 68 68 66 67 67 68 68 68 69 70 74 74 75 76 77 78 78 77 74 73 73 73 73 73 71 73 69 70 73 76 76 75 75 75 74
57 57 61 65 65 66 67 66 67 67 66 66 66 67 67 67 68 68 70 74 74 76 77 77 77 75 73 72 72 72 72 72 72 69 69 72 72 76 76 74 74 74 74
56 56 58 64 64 65 66 66 65 65 65 66 65 65 66 65 65 66 67 68 71 74 75 75 75 74 72 72 72 71 71 71 69 68 69 69 71 76 76 74 74 73 73
53 56 57 61 63 63 63 65 65 64 64 64 63 63 63 64 64 64 65 66 67 69 72 73 73 73 71 71 71 70 70 71 71 68 69 69 73 76 76 75 73 73 72
52 54 53 55 58 60 61 63 63 63 63 62 61 61 61 61 61 63 63 64 65 66 68 70 71 71 71 69 70 69 69 70 68 68 70 69 74 76 76 74 73 72 72
52 51 51 53 54 53 55 61 61 61 61 60 59 59 58 57 58 59 60 62 63 64 65 67 68 69 70 69 68 69 68 69 68 68 69 70 73 76 75 74 73 72 72
53 50 52 52 53 52 56 56 56 58 59 57 55 56 52 49 51 55 57 59 60 62 62 63 65 68 69 68 68 68 68 68 68 67 68 70 73 76 75 74 73 72 72
48 49 48 48 50 52 56 52 51 53 51 50 49 48 48 47 49 52 54 56 58 59 60 61 62 65 67 68 68 68 68 68 68 67 67 70 73 76 75 73 72 72 72
47 48 50 49 48 50 52 51 51 51 51 49 48 47 47 47 46 46 48 50 52 55 54 57 58 60 62 68 68 68 68 68 67 67 66 68 72 75 75 73 72 72 72
47 48 48 47 47 48 50 50 50 50 50 48 48 47 47 46 45 45 45 47 48 49 50 52 56 58 59 62 68 68 67 67 67 65 66 67 70 74 75 74 73 73 72
47 48 48 47 46 47 50 49 48 48 48 46 47 47 47 46 44 45 45 45 45 47 48 49 52 55 57 59 66 67 67 67 68 67 66 66 67 70 74 75 74 74 72
47 47 47 47 46 46 46 45 45 47 46 46 46 46 46 45 45 46 46 45 44 45 47 48 49 51 53 56 61 68 67 67 67 68 65 66 66 67 68 73 74 74 73
45 46 47 49 46 45 44 44 46 46 46 46 45 45 45 45 44 45 47 45 44 44 46 47 48 49 51 56 57 67 66 66 66 67 65 65 65 64 66 68 72 73 73
42 47 47 50 45 45 44 44 45 44 43 44 43 43 44 44 44 43 47 47 46 44 45 45 45 46 47 50 54 64 66 65 65 66 65 65 65 66 65 67 70 71 71
44 46 46 45 45 45 44 44 43 43 42 42 42 41 43 43 43 43 45 45 47 45 44 43 44 44 44 48 52 55 65 64 65 65 65 65 65 65 65 64 63 66 69
44 45 45 45 45 44 43 43 42 42 42 41 42 43 43 42 43 42 42 42 45 44 43 41 41 44 44 47 48 54 63 63 63 64 65 66 65 65 66 65 63 65 65
46 45 45 44 44 42 41 40 42 40 39 42 43 42 42 41 43 45 44 44 44 43 42 42 41 41 42 44 47 54 60 61 61 62 63 64 66 65 66 66 65 66 67
43 43 44 44 43 42 41 40 39 38 39 39 40 40 41 41 45 45 44 43 43 43 42 41 40 39 41 43 42 44 52 57 59 61 62 62 64 65 67 67 66 66 70
42 42 44 43 43 43 42 40 39 39 39 38 38 39 39 41 45 45 45 44 43 43 41 41 40 39 37 41 42 42 43 51 55 59 61 62 62 63 65 67 66 66 70
42 41 42 43 42 45 41 38 36 35 33 35 35 37 38 40 43 45 44 44 44 43 42 41 42 39 38 37 41 44 43 44 46 54 59 61 61 62 64 65 66 67 68
40 39 40 42 43 42 40 38 36 34 34 35 35 35 36 39 40 44 44 43 43 43 43 42 40 37 39 38 38 40 41 43 46 47 55 57 60 62 63 64 65 66 68
39 39 39 41 41 41 39 38 37 34 34 35 36 34 36 38 38 40 43 43 43 42 42 41 38 36 38 39 39 40 40 40 41 44 45 54 57 59 62 64 64 66 66
MSLP
1025.21 1024.59 1023.57 1022.56 1021.84 1021.03 1020.27 1019.60 1018.98 1018.29 1017.62 1016.94 1016.19 1015.80 1015.57 1015.44 1015.18 1014.79 1014.53 1014.48 1014.46 1014.46 1014.46 1014.49 1014.44 1014.28 1014.26 1014.31 1014.29 1014.29 1014.51 1014.67 1014.90 1015.09 1015.26 1015.49 1015.75 1016.06 1016.25 1016.53 1016.78 1017.05 1017.20
1026.06 1025.15 1024.26 1023.10 1022.44 1021.54 1020.64 1019.94 1019.41 1018.79 1018.22 1017.50 1016.80 1016.25 1015.90 1015.55 1015.36 1015.20 1015.02 1014.73 1014.61 1014.59 1014.51 1014.46 1014.42 1014.29 1014.22 1014.42 1014.39 1014.41 1014.57 1014.81 1015.11 1015.40 1015.48 1015.66 1016.00 1016.26 1016.58 1016.74 1017.08 1017.46 1017.63
1026.48 1025.44 1024.41 1023.43 1022.62 1021.77 1021.15 1020.52 1019.76 1019.29 1018.75 1018.15 1017.48 1016.79 1016.18 1015.71 1015.30 1015.09 1014.92 1014.85 1014.77 1014.65 1014.59 1014.52 1014.38 1014.43 1014.42 1014.41 1014.66 1014.55 1014.70 1015.00 1015.22 1015.53 1015.70 1015.99 1016.25 1016.57 1016.85 1017.07 1017.43 1017.76 1018.05
1026.68 1025.85 1024.94 1024.05 1023.20 1022.38 1021.65 1021.02 1020.29 1019.73 1019.32 1018.78 1018.10 1017.47 1016.90 1016.17 1015.57 1015.06 1014.76 1014.68 1014.64 1014.60 1014.58 1014.50 1014.47 1014.38 1014.53 1014.66 1014.74 1014.86 1014.93 1015.12 1015.32 1015.69 1015.94 1016.23 1016.39 1016.76 1017.15 1017.38 1017.62 1018.04 1018.26
1026.84 1026.17 1025.25 1024.38 1023.70 1022.95 1022.23 1021.53 1020.88 1020.41 1019.87 1019.41 1018.73 1018.04 1017.49 1016.90 1016.26 1015.56 1014.82 1014.71 1014.54 1014.40 1014.37 1014.36 1014.30 1014.34 1014.47 1014.65 1014.73 1015.07 1015.24 1015.29 1015.59 1015.82 1016.20 1016.40 1016.60 1016.93 1017.30 1017.53 1017.86 1018.23 1018.48
1027.30 1026.63 1025.85 1024.95 1024.24 1023.46 1022.70 1022.09 1021.39 1020.78 1020.24 1019.75 1019.30 1018.64 1018.00 1017.40 1016.68 1016.06 1015.38 1014.72 1014.44 1014.42 1014.23 1014.14 1014.22 1014.34 1014.42 1014.61 1014.74 1014.92 1015.24 1015.55 1015.69 1016.12 1016.39 1016.45 1016.69 1016.86 1017.35 1017.78 1018.04 1018.44 1018.76
1027.71 1027.06 1026.30 1025.40 1024.69 1024.06 1023.32 1022.69 1022.02 1021.39 1020.83 1020.21 1019.68 1019.18 1018.58 1018.15 1017.38 1016.64 1016.14 1015.46 1014.88 1014.31 1014.08 1014.03 1014.07 1014.11 1014.33 1014.51 1014.76 1014.75 1015.22 1015.50 1015.94 1016.15 1016.41 1016.59 1016.71 1016.85 1017.35 1017.92 1018.22 1018.58 1018.97
1028.10 1027.43 1026.66 1026.01 1025.31 1024.69 1024.01 1023.31 1022.68 1022.14 1021.63 1021.14 1020.53 1020.00 1019.24 1018.65 1017.82 1017.34 1016.66 1016.18 1015.50 1014.89 1014.42 1013.90 1013.96 1013.90 1014.05 1014.38 1014.57 1014.79 1015.15 1015.33 1015.89 1016.08 1016.42 1016.71 1016.65 1016.95 1017.36 1017.85 1018.37 1018.77 1019.21
1028.13 1027.53 1026.93 1026.39 1025.85 1025.23 1024.57 1023.78 1023.23 1022.63 1022.12 1021.77 1021.25 1020.57 1020.15 1019.38 1018.56 1017.82 1017.20 1016.68 1016.00 1015.28 1014.73 1014.17 1013.77 1013.65 1013.76 1014.09 1014.57 1014.63 1015.16 1015.17 1015.66 1016.04 1016.32 1016.68 1016.64 1016.89 1017.34 1017.81 1018.43 1018.86 1019.32
1028.25 1027.79 1027.32 1026.81 1026.34 1025.71 1025.09 1024.46 1023.87 1023.23 1022.73 1022.35 1021.89 1021.19 1020.66 1020.14 1019.41 1018.45 1017.82 1016.98 1016.49 1015.81 1015.28 1014.45 1013.95 1013.39 1013.47 1013.87 1014.23 1014.45 1014.81 1015.27 1015.46 1015.88 1016.12 1016.46 1016.65 1016.80 1017.27 1017.79 1018.34 1018.95 1019.36
1028.41 1028.10 1027.56 1027.07 1026.64 1026.14 1025.40 1025.02 1024.44 1023.89 1023.41 1022.99 1022.55 1021.97 1021.26 1020.83 1020.13 1019.26 1018.54 1017.60 1016.91 1016.11 1015.58 1014.85 1014.25 1013.51 1012.94 1013.49 1013.85 1014.29 1014.58 1015.14 1015.25 1015.60 1015.85 1016.13 1016.49 1016.62 1017.13 1017.62 1018.24 1018.95 1019.37
1028.98 1028.51 1028.26 1027.68 1027.07 1026.44 1025.82 1025.34 1024.82 1024.36 1024.05 1023.69 1023.25 1022.69 1022.06 1021.43 1020.72 1019.97 1019.14 1017.84 1017.38 1016.52 1015.94 1015.29 1014.52 1013.54 1013.03 1012.88 1013.43 1013.91 1014.34 1014.48 1015.03 1015.25 1015.53 1015.66 1016.19 1016.42 1016.90 1017.52 1018.09 1018.82 1019.34
1029.59 1029.03 1028.49 1028.03 1027.51 1026.90 1026.25 1025.74 1025.19 1024.77 1024.40 1024.21 1023.78 1023.22 1022.67 1021.89 1021.24 1020.43 1019.75 1018.86 1018.12 1017.42 1016.88 1015.74 1014.78 1014.43 1013.38 1012.79 1012.77 1013.14 1013.77 1014.09 1014.47 1014.80 1015.17 1015.35 1015.70 1016.17 1016.66 1017.38 1017.97 1018.72 1019.26
1029.80 1029.33 1028.82 1028.29 1027.85 1027.24 1026.66 1026.18 1025.81 1025.38 1024.85 1024.66 1024.25 1023.65 1023.16 1022.42 1021.72 1021.14 1020.63 1019.80 1018.71 1017.70 1017.70 1016.95 1015.59 1014.75 1013.80 1013.11 1012.43 1012.37 1012.90 1013.68 1013.83 1014.61 1014.76 1014.90 1015.24 1015.73 1016.10 1016.88 1017.83 1018.53 1019.20
1030.00 1029.40 1029.01 1028.54 1028.18 1027.72 1027.09 1026.63 1026.15 1025.77 1025.35 1025.17 1024.69 1024.20 1023.65 1022.96 1022.30 1021.59 1021.05 1020.44 1019.98 1018.95 1017.55 1015.75 1017.18 1014.55 1014.03 1013.17 1012.48 1011.86 1012.21 1012.84 1013.33 1013.69 1014.26 1014.53 1015.00 1015.25 1015.77 1016.28 1017.37 1018.22 1018.99
1029.96 1029.53 1029.16 1028.78 1028.47 1027.98 1027.52 1027.11 1026.60 1026.12 1025.82 1025.42 1025.08 1024.69 1024.23 1023.47 1022.72 1021.80 1021.29 1020.85 1020.35 1019.75 1018.25 1016.32 1015.30 1015.41 1014.36 1013.80 1012.78 1011.58 1011.54 1011.93 1012.61 1012.83 1013.59 1014.17 1014.35 1014.81 1015.77 1016.17 1016.94 1017.74 1018.55
1029.94 1029.55 1029.21 1028.63 1028.49 1028.18 1027.79 1027.25 1026.80 1026.45 1026.04 1025.69 1025.43 1025.04 1024.57 1023.91 1023.15 1022.26 1021.48 1021.17 1020.66 1020.00 1019.17 1018.21 1017.31 1015.94 1015.02 1014.01 1012.92 1011.41 1011.32 1011.36 1011.89 1012.36 1012.64 1013.36 1013.97 1014.78 1015.35 1015.79 1016.79 1017.16 1018.10
1029.93 1029.70 1029.34 1028.87 1028.62 1028.34 1027.97 1027.51 1026.96 1026.63 1026.38 1026.05 1025.64 1025.30 1024.82 1024.17 1023.44 1022.66 1021.62 1021.34 1020.97 1020.29 1019.23 1018.47 1017.72 1016.50 1014.82 1014.48 1013.47 1011.27 1010.90 1010.94 1011.33 1011.77 1012.04 1012.47 1013.35 1014.03 1013.95 1015.26 1016.46 1016.68 1017.58
1029.96 1029.78 1029.44 1029.13 1028.88 1028.56 1028.16 1027.75 1027.24 1026.94 1026.64 1026.26 1025.81 1025.41 1024.93 1024.41 1023.75 1023.04 1022.34 1021.75 1021.01 1020.65 1020.02 1019.38 1018.39 1017.42 1016.14 1014.38 1011.91 1011.65 1010.37 1010.54 1010.75 1011.44 1011.81 1012.26 1013.02 1014.00 1014.88 1015.61 1015.93 1016.49 1017.26
1030.05 1029.78 1029.52 1029.39 1029.06 1028.73 1028.41 1027.93 1027.49 1027.14 1026.84 1026.45 1026.02 1025.52 1025.09 1024.57 1023.90 1023.34 1022.80 1022.15 1021.18 1020.66 1020.34 1019.79 1018.39 1016.95 1016.52 1015.17 1012.63 1010.70 1010.47 1010.26 1010.25 1010.80 1011.26 1011.97 1012.51 1013.09 1013.81 1014.87 1015.79 1016.72 1016.87
1030.06 1029.89 1029.80 1029.56 1029.24 1029.01 1028.61 1028.21 1027.65 1027.49 1027.10 1026.65 1026.34 1025.97 1025.36 1024.79 1024.08 1023.33 1022.92 1022.27 1021.51 1020.85 1020.33 1020.10 1019.59 1018.54 1016.49 1015.83 1014.13 1011.59 1009.10 1009.87 1009.78 1010.31 1010.86 1011.49 1012.10 1012.62 1013.22 1013.86 1014.76 1015.58 1016.46
1030.37 1030.18 1030.00 1029.75 1029.47 1029.17 1028.90 1028.52 1028.19 1027.87 1027.44 1027.14 1026.72 1026.23 1025.64 1025.07 1024.25 1023.47 1022.98 1022.43 1021.77 1021.19 1020.53 1019.88 1019.51 1018.71 1017.68 1017.18 1016.04 1013.53 1011.14 1010.24 1009.95 1010.06 1010.46 1011.26 1011.57 1012.02 1012.45 1012.77 1013.50 1014.36 1015.83
1030.47 1030.33 1030.18 1029.94 1029.64 1029.25 1029.02 1028.70 1028.42 1028.07 1027.66 1027.27 1026.88 1026.32 1025.82 1025.19 1024.37 1023.71 1022.94 1022.49 1021.87 1021.35 1020.96 1020.40 1019.68 1019.52 1018.74 1017.69 1017.21 1015.28 1013.88 1011.43 1010.56 1010.16 1010.05 1010.67 1010.93 1011.39 1011.68 1012.59 1013.10 1012.94 1014.25
1030.53 1030.39 1030.33 1030.09 1029.78 1029.30 1029.24 1029.23 1029.19 1028.95 1028.45 1027.86 1027.37 1026.78 1026.13 1025.37 1024.60 1023.73 1022.99 1022.42 1021.83 1021.43 1021.03 1020.58 1020.13 1019.64 1018.86 1017.72 1016.07 1015.63 1015.25 1015.35 1013.03 1010.91 1009.90 1010.48 1010.54 1010.81 1011.15 1011.72 1012.52 1013.19 1013.58
1030.64 1030.70 1030.56 1030.30 1030.03 1029.82 1029.70 1029.69 1029.47 1029.17 1028.74 1028.04 1027.48 1027.03 1026.35 1025.61 1024.88 1023.79 1023.10 1022.42 1021.91 1021.40 1020.98 1020.62 1020.36 1019.97 1019.24 1018.22 1017.51 1016.46 1015.98 1015.28 1013.82 1012.32 1010.47 1010.62 1010.75 1010.56 1010.67 1011.15 1011.48 1012.53 1013.26
1030.83 1030.92 1030.75 1030.60 1030.46 1030.24 1030.01 1029.94 1029.63 1029.29 1028.76 1028.20 1027.49 1027.05 1026.41 1025.74 1025.04 1024.33 1023.38 1022.72 1022.20 1021.68 1021.06 1020.79 1020.74 1020.21 1019.45 1018.77 1017.74 1017.12 1016.73 1016.04 1013.95 1013.65 1012.18 1010.87 1010.40 1010.11 1010.24 1010.75 1011.07 1011.65 1012.53
Wind_Speed
14 17 28 29 28 27 27 26 26 26 27 26 23 18 6 4 3 1 4 6 6 7 7 7 6 5 6 3 3 6 8 10 11 13 16 18 19 19 19 18 18 15 19
14 17 26 27 26 26 27 26 26 26 27 27 26 24 20 6 4 3 3 4 5 8 9 8 6 5 6 5 6 8 11 11 13 14 16 17 18 19 18 16 17 15 18
14 15 17 28 27 26 27 27 26 27 27 27 27 26 24 19 9 6 6 6 6 6 7 7 7 6 6 7 6 8 12 13 14 15 16 8 10 18 17 16 17 18 19
12 13 16 27 26 27 27 27 27 27 29 28 28 28 27 25 21 13 9 8 8 7 8 8 8 7 8 8 8 7 10 14 15 14 7 6 10 18 18 17 18 18 17
14 14 17 28 27 27 28 28 27 27 26 27 29 29 28 28 27 25 14 9 9 9 9 9 9 7 8 10 11 9 8 11 11 9 6 6 8 15 18 18 17 17 15
12 12 18 27 27 28 29 28 27 29 27 24 27 28 27 27 27 26 24 15 12 11 10 10 8 8 9 10 11 11 10 11 9 6 5 10 7 18 19 17 17 16 15
11 12 14 27 27 27 29 30 28 29 29 26 28 28 29 28 27 27 26 23 18 14 12 11 10 9 11 11 11 12 11 11 6 6 5 6 8 19 20 18 17 16 15
7 11 13 20 27 26 27 30 29 29 29 30 29 28 29 27 27 27 25 26 24 20 18 11 10 10 10 11 12 12 12 11 8 6 6 5 13 18 21 19 17 16 15
6 9 10 12 17 21 24 27 27 28 28 29 29 30 28 27 27 27 26 25 26 23 19 17 11 11 11 11 11 14 12 12 6 4 7 4 17 18 21 20 18 17 16
7 8 10 10 12 13 11 24 27 24 26 28 29 29 28 26 25 26 27 25 26 24 22 17 16 12 11 11 10 13 14 11 6 6 5 6 17 19 21 21 20 17 17
8 8 11 12 11 11 13 14 17 21 22 23 23 27 19 13 16 18 22 25 27 25 24 20 18 12 12 11 12 12 14 6 6 5 5 10 18 21 21 20 19 17 17
8 8 7 7 9 11 10 10 10 11 8 8 11 14 11 12 15 18 19 26 23 27 24 24 21 17 10 5 5 9 5 8 7 7 5 14 17 21 22 20 19 18 17
4 5 9 9 7 10 10 8 6 6 6 6 11 11 11 10 10 10 10 10 11 19 10 14 13 9 11 6 6 7 7 8 6 5 8 12 16 21 22 21 20 20 18
5 6 7 7 7 8 6 7 8 8 7 6 8 12 10 8 10 9 8 12 11 11 13 11 8 11 12 12 9 9 10 8 7 5 8 13 16 21 23 24 23 21 19
7 7 8 7 7 7 9 8 7 7 7 5 8 10 10 9 8 8 9 10 11 11 10 9 12 9 12 11 13 10 10 10 10 7 7 17 18 16 21 23 24 23 22
5 6 6 6 7 7 7 7 6 6 6 6 7 9 14 9 9 8 10 11 12 11 12 11 12 11 11 9 15 11 11 10 11 11 8 11 19 16 11 14 23 24 25
2 4 6 5 6 7 7 6 6 5 5 6 6 10 13 12 11 11 10 11 11 12 13 11 11 9 9 9 15 12 9 11 11 11 10 8 10 13 17 16 24 22 23
2 5 6 5 6 7 7 6 5 5 4 5 5 6 11 11 12 11 10 10 11 11 11 11 10 11 10 10 8 11 8 9 11 12 10 9 8 7 5 15 21 21 23
2 5 5 6 7 7 7 5 6 6 4 4 4 4 10 10 11 10 10 10 12 8 10 11 10 9 10 12 9 9 7 8 10 10 13 12 12 12 11 18 15 14 19
3 4 5 5 6 7 5 5 4 4 4 4 6 7 11 7 9 8 8 9 10 9 9 11 14 11 10 9 12 10 8 6 8 8 12 11 14 14 12 12 10 11 18
4 6 6 6 6 4 3 4 4 5 4 6 8 10 11 10 9 12 10 12 11 10 11 11 10 12 9 12 8 2 2 3 3 6 7 8 13 15 14 13 10 9 11
6 5 6 6 5 4 3 3 3 3 3 3 6 7 9 9 13 12 12 10 11 9 11 11 12 10 8 9 6 7 5 3 2 4 5 8 11 9 15 12 14 11 15
7 5 5 6 6 5 6 4 4 3 4 3 6 7 9 9 12 12 12 12 9 9 8 10 12 13 8 7 9 4 3 2 1 2 6 6 9 8 9 17 20 24 20
7 4 5 6 6 6 7 6 6 4 4 3 4 6 8 10 11 11 10 9 8 7 9 7 8 10 11 10 8 8 5 5 6 3 2 6 7 10 9 10 13 15 16
6 4 5 5 7 7 7 5 4 5 4 4 5 7 6 9 10 12 11 10 9 7 9 9 11 11 8 8 8 8 8 7 11 3 4 5 3 7 7 8 11 12 15
5 5 5 6 6 7 6 5 7 7 8 7 8 6 6 7 7 11 12 9 10 9 9 8 11 10 9 9 8 8 6 5 9 5 4 4 4 3 5 7 7 9 10
Wind_Direction
348 349 357 358 357 357 1 3 2 2 5 6 4 1 346 340 328 358 149 156 157 163 165 165 169 151 139 159 160 157 152 133 128 128 128 129 128 126 124 123 119 119 119
346 351 356 2 359 0 5 5 4 6 6 7 7 5 358 302 280 254 238 203 185 180 181 182 181 174 148 144 144 142 138 137 136 134 134 130 130 128 123 117 116 121 121
357 357 354 5 5 5 7 6 5 9 9 8 8 7 4 355 290 253 235 222 216 203 197 202 195 183 172 148 148 153 148 143 143 141 137 132 132 134 128 123 124 124 126
4 4 359 10 10 10 9 9 7 11 10 8 8 7 3 1 0 294 248 230 221 214 209 212 217 201 175 160 155 163 153 152 146 141 126 132 139 140 136 131 129 131 130
13 3 2 14 15 14 14 11 13 8 5 4 8 6 4 4 0 356 295 254 243 226 219 219 219 207 181 168 163 156 154 137 135 132 134 139 142 149 145 139 137 135 129
8 2 6 16 17 17 17 15 13 12 9 5 7 5 6 4 2 1 354 300 258 250 237 221 220 206 184 177 168 156 156 144 130 127 130 141 145 154 151 144 141 133 133
9 2 6 16 17 16 16 17 16 17 15 9 9 7 4 4 1 1 355 356 343 272 246 233 218 202 188 185 171 161 165 151 140 135 138 142 151 154 154 147 145 138 138
6 5 6 12 16 15 13 17 18 19 18 17 11 4 360 0 358 356 356 354 359 340 323 242 224 211 193 195 173 168 174 159 152 143 144 153 162 160 157 152 148 144 142
3 12 3 3 8 6 11 13 12 17 18 17 13 12 4 0 356 351 354 350 354 353 340 327 235 215 205 198 183 171 183 171 152 154 153 165 167 165 162 156 152 147 147
5 10 1 0 4 1 4 5 10 7 13 15 15 13 10 6 357 352 347 347 348 350 346 333 337 228 208 203 188 180 175 185 155 161 161 175 173 169 164 159 157 151 150
14 8 5 6 9 2 5 359 359 359 6 16 12 9 8 3 355 351 343 344 341 343 346 349 331 318 208 208 184 195 162 181 163 168 164 179 181 174 167 162 159 157 155
5 356 2 353 2 3 3 359 354 353 360 4 8 6 3 1 360 357 347 349 345 338 344 342 342 334 259 191 188 183 195 174 179 175 177 175 185 182 170 164 158 160 161
334 352 357 0 356 5 4 359 355 359 4 3 7 7 359 357 355 359 351 342 340 347 335 333 341 328 339 238 189 177 183 190 178 180 177 179 184 186 175 169 163 166 167
6 345 348 358 359 5 3 1 354 2 7 9 6 4 358 357 356 355 355 350 350 347 334 327 319 320 320 327 221 183 178 197 172 176 183 181 187 188 179 174 174 173 172
24 359 352 6 2 358 9 359 358 1 1 4 5 1 358 352 347 349 352 351 352 353 343 347 307 333 321 320 282 203 186 189 193 169 178 172 173 171 186 177 181 181 181
26 349 339 8 2 4 2 348 347 356 351 8 360 359 353 342 340 346 354 351 350 343 332 335 346 326 323 316 297 222 191 186 188 190 169 188 179 173 187 201 190 186 189
349 324 357 360 5 11 351 344 354 352 0 8 355 0 353 346 342 330 352 354 348 342 337 332 329 331 320 302 317 226 203 186 182 184 173 176 191 180 185 197 207 187 191
3 350 352 3 1 6 354 344 344 346 357 356 354 354 352 345 345 336 352 351 351 346 339 343 340 333 327 321 297 271 203 186 188 172 173 174 180 177 217 190 201 190 191
319 347 354 357 357 353 344 334 334 345 357 344 338 340 346 346 347 348 360 348 347 350 345 343 335 338 321 310 317 296 221 194 184 171 169 178 180 168 184 194 195 192 194
326 334 356 353 348 344 329 326 323 340 346 340 342 348 341 331 347 340 354 345 347 346 351 350 337 341 316 322 321 305 239 190 180 173 179 168 180 185 179 184 184 215 189
324 337 358 345 342 354 325 342 346 349 335 356 353 346 341 335 345 356 356 353 347 345 346 354 344 334 343 339 304 309 338 163 137 167 168 172 181 190 196 200 179 185 195
298 325 344 351 352 347 345 324 337 332 322 333 339 337 335 338 357 354 354 351 345 341 342 347 353 347 338 346 324 282 281 180 205 189 153 180 186 185 182 186 216 198 202
334 333 343 351 0 3 355 344 352 328 315 326 345 349 340 326 357 350 355 354 344 343 340 345 348 353 335 334 324 286 341 311 349 203 182 203 175 188 167 181 187 214 188
331 338 9 16 8 2 2 18 11 330 324 301 304 322 330 325 337 345 336 340 347 342 338 343 351 344 336 337 345 354 343 304 305 184 85 224 202 186 179 184 181 184 183
356 20 16 21 14 2 9 22 333 328 292 292 307 322 325 335 326 333 341 341 340 344 344 349 358 346 334 329 336 337 322 307 254 246 206 173 200 191 193 182 177 181 183
33 31 33 21 2 0 3 340 331 320 317 325 331 328 331 336 330 330 337 346 349 347 345 0 350 342 332 335 331 334 333 324 335 338 2 357 197 185 170 183 191 181 179